Change the Weather History Date:

Thursday, September 13, 2012

  Actual Average Record
Temperature  
Mean Temperature 82 °F -  
Max Temperature 96 °F 88 °F 102 °F (2008)
Min Temperature 71 °F 68 °F 63 °F (2003)
Cooling Degree Days 17    
Growing Degree Days 32 (Base 50)    
Moisture  
Dew Point 70 °F    
Average Humidity 78    
Maximum Humidity 96    
Minimum Humidity 36    
Precipitation  
Precipitation 0.00 in - - ()
Sea Level Pressure  
Sea Level Pressure 30.03 in    
Wind  
Wind Speed 8 mph (East)    
Max Wind Speed 25 mph    
Max Gust Speed 33 mph    
Visibility 9 miles    
Events Rain , Thunderstorm    
Averages and records for this station are not official NWS values.
T = Trace of Precipitation, MM = Missing Value Source: NWS Daily Summary

Daily Weather History Graph

Daily Weather History Graph

Search for Another Location

Airport or City:

Trip Planner

Search our weather history database for the weather conditions in past years. The results will help you decide how hot, cold, wet, or windy it might be!

Date:

Astronomy

Sep. 13, 2012 Rise Set
Actual Time 7:17 AM CDT 7:40 PM CDT
Civil Twilight 6:54 AM CDT 8:04 PM CDT
Nautical Twilight 6:26 AM CDT 8:32 PM CDT
Astronomical Twilight 5:57 AM CDT 9:00 PM CDT
Moon 4:47 AM CDT (9/13) 5:58 PM CDT (9/13)
Length of Visible Light 13h 10m
Length of Day
12h 22m
Waning Crescent, 7% of the Moon is Illuminated
Sep 13
Waning Crescent
Sep 15
New
Sep 22
First Quarter
Sep 29
Full
Oct 8
Last Quarter

Hourly Weather History & Observations

Time (CDT) Temp. Heat Index Dew Point Humidity Pressure Visibility Wind Dir Wind Speed Gust Speed Precip Events Conditions
12:53 AM 79.0 °F - 72.0 °F 79% 29.99 in 10.0 mi ESE 6.9 mph - N/A   Scattered Clouds
1:53 AM 78.1 °F - 73.0 °F 84% 29.99 in 10.0 mi SE 6.9 mph - N/A   Clear
2:53 AM 78.1 °F - 73.0 °F 84% 29.97 in 10.0 mi SE 5.8 mph - N/A   Clear
3:53 AM 75.9 °F - 73.0 °F 91% 29.96 in 10.0 mi SSE 4.6 mph - N/A   Clear
4:53 AM 75.9 °F - 73.0 °F 91% 29.96 in 10.0 mi East 3.5 mph - N/A   Partly Cloudy
5:14 AM 75.2 °F - 73.4 °F 94% 30.01 in 10.0 mi East 4.6 mph - N/A   Mostly Cloudy
5:23 AM 75.2 °F - 73.4 °F 94% 30.01 in 10.0 mi East 3.5 mph - N/A   Mostly Cloudy
5:35 AM 75.2 °F - 73.4 °F 94% 30.01 in 10.0 mi East 3.5 mph - N/A   Scattered Clouds
5:53 AM 75.9 °F - 73.0 °F 91% 29.97 in 10.0 mi East 4.6 mph - N/A   Scattered Clouds
6:01 AM 75.2 °F - 73.4 °F 94% 30.01 in 10.0 mi East 3.5 mph - N/A   Mostly Cloudy
6:11 AM 75.2 °F - 73.4 °F 94% 30.01 in 9.0 mi East 4.6 mph - N/A   Scattered Clouds
6:53 AM 75.9 °F - 73.9 °F 94% 30.00 in 8.0 mi East 4.6 mph - N/A   Clear
7:16 AM 75.2 °F - 73.4 °F 94% 30.03 in 8.0 mi East 4.6 mph - N/A   Partly Cloudy
7:53 AM 75.9 °F - 73.9 °F 94% 30.01 in 7.0 mi East 3.5 mph - N/A   Clear
8:53 AM 79.0 °F - 73.9 °F 84% 30.01 in 10.0 mi SE 8.1 mph - N/A   Clear
9:53 AM 82.0 °F 87.4 °F 73.0 °F 74% 30.03 in 10.0 mi SE 10.4 mph - N/A   Mostly Cloudy
10:00 AM 82.4 °F 87.2 °F 71.6 °F 70% 30.06 in 10.0 mi SE 10.4 mph - N/A   Scattered Clouds
10:53 AM 86.0 °F 90.7 °F 70.0 °F 59% 30.05 in 10.0 mi SSE 11.5 mph 16.1 mph N/A   Scattered Clouds
11:53 AM 90.0 °F 93.6 °F 68.0 °F 48% 30.03 in 10.0 mi SSE 11.5 mph 16.1 mph N/A   Scattered Clouds
12:53 PM 91.0 °F 93.8 °F 66.0 °F 44% 29.98 in 10.0 mi SSW 10.4 mph 16.1 mph N/A   Partly Cloudy
1:53 PM 93.9 °F 95.2 °F 63.0 °F 36% 29.96 in 10.0 mi SE 8.1 mph - N/A   Clear
2:53 PM 90.0 °F 92.8 °F 66.9 °F 46% 29.95 in 9.0 mi SSE 25.3 mph 33.4 mph N/A   Mostly Cloudy
3:04 PM 91.4 °F 94.0 °F 66.2 °F 43% 29.97 in 10.0 mi SSE 17.3 mph 29.9 mph N/A   Mostly Cloudy
3:17 PM 91.4 °F 94.0 °F 66.2 °F 43% 29.98 in 10.0 mi SSE 19.6 mph 29.9 mph N/A   Partly Cloudy
3:19 PM 91.4 °F 94.0 °F 66.2 °F 43% 29.98 in 10.0 mi South 15.0 mph 29.9 mph N/A   Partly Cloudy
3:53 PM 88.0 °F 90.7 °F 66.9 °F 49% 29.95 in 10.0 mi South 15.0 mph 21.9 mph N/A   Scattered Clouds
4:53 PM 84.9 °F 88.8 °F 69.1 °F 59% 29.96 in 10.0 mi SE 15.0 mph - 0.00 in   Scattered Clouds
5:53 PM 82.0 °F 85.9 °F 70.0 °F 67% 29.96 in 10.0 mi East 8.1 mph - 0.00 in   Scattered Clouds
6:53 PM 80.1 °F 83.6 °F 71.1 °F 74% 29.99 in 10.0 mi NNE 11.5 mph - 0.00 in Rain Light Rain
7:53 PM 78.1 °F - 70.0 °F 76% 30.02 in 10.0 mi NE 11.5 mph 16.1 mph 0.00 in   Mostly Cloudy
8:41 PM 75.2 °F - 69.8 °F 83% 30.08 in 10.0 mi NE 15.0 mph - N/A   Mostly Cloudy
8:53 PM 75.9 °F - 70.0 °F 82% 30.06 in 10.0 mi NE 10.4 mph - N/A   Overcast
9:09 PM 75.2 °F - 69.8 °F 83% 30.10 in 10.0 mi NE 11.5 mph 18.4 mph N/A   Overcast
9:45 PM 75.2 °F - 69.8 °F 83% 30.11 in 10.0 mi NE 11.5 mph - N/A   Overcast
9:53 PM 75.0 °F - 69.1 °F 82% 30.08 in 10.0 mi NE 9.2 mph 18.4 mph N/A   Overcast
10:16 PM 75.2 °F - 69.8 °F 83% 30.13 in 10.0 mi NE 8.1 mph 16.1 mph N/A   Overcast
10:34 PM 75.2 °F - 69.8 °F 83% 30.14 in 8.0 mi North 10.4 mph - 0.00 in Rain , Thunderstorm Light Rain
10:44 PM 73.4 °F - 69.8 °F 88% 30.14 in 7.0 mi NNE 9.2 mph - 0.00 in Rain Light Rain
10:53 PM 73.0 °F - 70.0 °F 90% 30.12 in 5.0 mi North 9.2 mph - N/A Rain Light Rain
11:21 PM 71.6 °F - 69.8 °F 94% 30.16 in 6.0 mi North 6.9 mph - N/A Rain Light Rain
11:28 PM 71.6 °F - 69.8 °F 94% 30.15 in 1.8 mi NNW 8.1 mph - N/A Rain Heavy Rain
11:40 PM 71.6 °F - 69.8 °F 94% 30.15 in 2.0 mi North 6.9 mph 16.1 mph N/A Rain Heavy Rain
11:44 PM 71.6 °F - 69.8 °F 94% 30.16 in 1.8 mi North 4.6 mph - N/A Rain Heavy Rain
11:53 PM 71.1 °F - 70.0 °F 96% 30.12 in 1.8 mi NNW 5.8 mph - N/A Rain Heavy Rain